Tracking 30058 objects as of 9-Dec-2024
HD Live streaming from Space Station
objects crossing your sky now

STARLINK-6318

Track STARLINK-6318 now!
10-day predictions
STARLINK-6318 is classified as:


NORAD ID: 56530
Int'l Code: 2023-065AD
Perigee: 565.4 km
Apogee: 567.0 km
Inclination: 43.0 °
Period: 95.8 minutes
Semi major axis: 6937 km
RCS: Unknown
Launch date: May 14, 2023
Source: United States (US)
Launch site: AIR FORCE EASTERN TEST RANGE (AFETR)
Your satellite tracking list
Your tracking list is empty




NASA's NSSDC Master Catalog

Two Line Element Set (TLE):
1 56530U 23065AD  24344.52014112  .00000416  00000-0  45876-4 0  9993
2 56530  43.0020 137.7234 0001100 266.7209  93.3508 15.02540351 88450
Source of the keplerian elements: AFSPC